• MPC Preparation (Info)

  • MPEC 2005-C22 : 2005 CM7

    The following Minor Planet Electronic Circular may be linked-to from your own Web pages, but must not otherwise be redistributed electronically.

    A form allowing access to any MPEC is at the bottom of this page.


    Read MPEC 2005-C21 Read MPEC 2005-C23


    M.P.E.C. 2005-C22                                Issued 2005 Feb. 5, 12:49 UT
    
         The Minor Planet Electronic Circulars contain information on unusual
             minor planets and routine data on comets.  They are published
       on behalf of Commission 20 of the International Astronomical Union by the
              Minor Planet Center, Smithsonian Astrophysical Observatory,
                              Cambridge, MA 02138, U.S.A.
    
                      Supported in part by the Brinson Foundation
                 Prepared using the Tamkin Foundation Computer Network
    
                                  MPC@CFA.HARVARD.EDU
              URL http://cfa-www.harvard.edu/iau/mpc.html  ISSN 1523-6714
    
                                       2005 CM7
    
    Observations:
         K05C07M* C2005 02 04.28936 09 42 57.45 +10 30 39.3          18.9   EC022704
         K05C07M  C2005 02 04.30189 09 42 49.04 +10 34 35.1          19.1   EC022704
         K05C07M  C2005 02 04.31472 09 42 40.38 +10 38 34.3          19.8   EC022704
         K05C07M  C2005 02 04.32727 09 42 32.08 +10 42 24.9          19.1   EC022704
         K05C07M  C2005 02 04.96413 09 37 49.95 +13 18 42.4          19.0 V EC022198
         K05C07M  C2005 02 04.96505 09 37 49.54 +13 18 53.9          19.2 V EC022198
         K05C07M  C2005 02 04.96728 09 37 48.55 +13 19 20.8          19.3 V EC022198
         K05C07M  C2005 02 04.96846 09 37 48.03 +13 19 34.9          19.2 V EC022198
         K05C07M  C2005 02 04.97056 09 37 47.10 +13 20 00.1          19.3 V EC022198
         K05C07M  C2005 02 05.21725 09 36 26.24 +14 06 14.4          20.0 R EC022649
         K05C07M  C2005 02 05.21853 09 36 25.70 +14 06 28.6          19.4 R EC022649
         K05C07M  C2005 02 05.21981 09 36 25.31 +14 06 41.4          19.6 R EC022649
         K05C07M  C2005 02 05.22110 09 36 24.74 +14 06 54.8          19.4 R EC022649
         K05C07M 5C2005 02 05.27998 09 36 06.88 +14 17 07.3          19.5 R EC022673
         K05C07M 5C2005 02 05.28356 09 36 05.54 +14 17 43.4                 EC022673
         K05C07M 5C2005 02 05.28877 09 36 03.53 +14 18 35.9                 EC022673
         K05C07M 5C2005 02 05.29549 09 36 00.93 +14 19 43.2                 EC022673
         K05C07M  C2005 02 05.32726 09 35 47.25 +14 25 05.0          19.3 R EC022854
         K05C07M  C2005 02 05.33036 09 35 45.81 +14 25 38.8          19.1 R EC022854
    
    Observer details:
    198 Wildberg.  Observer R. Apitzsch.  0.35-m f/4.2 reflector + CCD.
    649 Powell Observatory, Louisburg.  Observer R. Fredrick.  0.75-m Newtonian
        reflector + CCD.
    673 Table Mountain Observatory, Wrightwood.  Observer J. Young.  0.6-m
        reflector + CCD.
    704 Lincoln Laboratory ETS, New Mexico.  Observers M. Blythe, F. Shelly,
        M. Bezpalko, R. Huber, L. Manguso, D. Torres, R. Krack.  Measurers
        J. Stuart, R. Sayer, J. Evans, J. Kommers.  1.0-m f/2.15 reflector + CCD.
    854 Sabino Canyon Observatory, Tucson.  Observer J. E. McGaha.  0.36-m f/10.0
        Schmidt-Cassegrain + CCD.
    
    Orbital elements:
    2005 CM7
    Epoch 2005 Jan. 30.0 TT = JDT 2453400.5                 MPC
    M  20.33689              (2000.0)            P               Q
    n   0.44992499     Peri.  270.55674     +0.67646669     -0.73418838
    a   1.6867186      Node   136.68395     +0.70484913     +0.62259356
    e   0.6243108      Incl.    4.84717     +0.21349596     +0.27082224
    P   2.19           H   26.3           G   0.15
    From 17 observations 2005 Feb. 4-5.
    
    Ephemeris:
    2005 CM7                 a,e,i = 1.69, 0.62, 5                   q = 0.6337
    Date    TT    R. A. (2000) Decl.     Delta      r     Elong.  Phase     V
    2005 01 30    20 48.09   -36 07.5    0.030    0.957    18.4   161.0    29.9
    2005 01 31    20 29.37   -42 13.3    0.020    0.967    25.4   154.1    27.0
    2005 02 01    19 09.04   -57 46.3    0.011    0.978    45.4   134.1    22.5
    2005 02 02    11 28.80   -40 51.1    0.0074   0.988   113.1    66.5    18.0
    2005 02 03    10 05.04   -02 09.4    0.015    0.999   156.4    23.3    18.2
    2005 02 04    09 45.91   +08 51.1    0.024    1.010   168.6    11.1    18.9
    2005 02 05    09 37.57   +13 28.1    0.034    1.020   173.9     5.9    19.5
    2005 02 06    09 32.91   +15 57.9    0.045    1.031   176.6     3.3    19.9
    2005 02 07    09 29.93   +17 31.1    0.055    1.041   177.2     2.6    20.4
    2005 02 08    09 27.86   +18 34.4    0.066    1.052   176.5     3.3    20.8
    2005 02 09    09 26.34   +19 20.1    0.076    1.062   175.3     4.4    21.2
    2005 02 10    09 25.19   +19 54.4    0.087    1.073   174.1     5.5    21.6
    2005 02 11    09 24.29   +20 21.0    0.097    1.084   172.9     6.5    21.9
    2005 02 12    09 23.58   +20 42.1    0.108    1.094   171.7     7.5    22.2
    2005 02 13    09 23.01   +20 59.0    0.119    1.105   170.6     8.4    22.5
    2005 02 14    09 22.55   +21 12.8    0.130    1.115   169.5     9.3    22.7
    2005 02 15    09 22.18   +21 24.1    0.140    1.126   168.4    10.1    22.9
    2005 02 16    09 21.89   +21 33.5    0.151    1.136   167.4    10.9    23.2
    2005 02 17    09 21.67   +21 41.2    0.162    1.147   166.4    11.7    23.4
    2005 02 18    09 21.50   +21 47.6    0.173    1.157   165.3    12.5    23.6
    2005 02 19    09 21.38   +21 52.9    0.185    1.167   164.3    13.2    23.7
    
    Timothy B. Spahr             (C) Copyright 2005 MPC           M.P.E.C. 2005-C22
    

    Read MPEC 2005-C21 Read MPEC 2005-C23


    MPEC number:

    Enter an MPEC number in one of the following forms:

    • 1997-B01 (the full form)
    • J97B01 (the packed version of the full form)
    • B01 (the abbreviated form)